Torna al catalogo

SL-24 R/B

AttivoPO
NORAD 40541·ROCKET BODY·🇷🇺 Russia

Lanciato Mar 25, 2015 da Dombarovsky

Loading…

Prossimi Passaggi (prossime 24 ore)

TLE

AggiornatoSource: Space-Track

Epoca: Sep 14, 2026, 21:12 UTC

1 40541U 15014C   26257.88391576  .00000121  00000-0  39699-4 0  9998
2 40541  97.3540  52.4013 0609721 355.5648   4.0248 13.77878418576145

Traccia SL-24 R/B in tempo reale con AllMySat

Download on the App Store